Year,Month,Day,Hour,Minute,Value (Times are PST for temperature in C)
2008,08,04,00,00,15.00
2008,08,04,00,01,15.00
2008,08,04,00,02,15.00
2008,08,04,00,03,15.00
2008,08,04,00,04,15.00
2008,08,04,00,05,15.00
2008,08,04,00,06,15.00
2008,08,04,00,07,15.00
2008,08,04,00,08,15.00
2008,08,04,00,09,15.00
2008,08,04,00,10,15.00
2008,08,04,00,11,15.00
2008,08,04,00,12,15.00
2008,08,04,00,13,15.00
2008,08,04,00,14,15.00
2008,08,04,00,15,15.00
2008,08,04,00,16,15.00
2008,08,04,00,17,15.00
2008,08,04,00,18,15.00
2008,08,04,00,19,15.00
2008,08,04,00,20,15.00
2008,08,04,00,21,15.00
2008,08,04,00,22,15.00
2008,08,04,00,23,15.00
2008,08,04,00,24,15.00
2008,08,04,00,25,15.00
2008,08,04,00,26,15.00
2008,08,04,00,27,15.00
2008,08,04,00,28,15.00
2008,08,04,00,29,15.00
2008,08,04,00,30,15.00
2008,08,04,00,31,15.00
2008,08,04,00,32,15.00
2008,08,04,00,33,15.00
2008,08,04,00,34,15.00
2008,08,04,00,35,15.00
2008,08,04,00,36,15.00
2008,08,04,00,37,15.00
2008,08,04,00,38,15.00
2008,08,04,00,39,15.00
2008,08,04,00,40,15.00
2008,08,04,00,41,14.90
2008,08,04,00,42,14.90
2008,08,04,00,43,14.90
2008,08,04,00,44,14.80
2008,08,04,00,45,14.80
2008,08,04,00,46,14.80
2008,08,04,00,47,14.80
2008,08,04,00,48,14.70
2008,08,04,00,49,14.70
2008,08,04,00,50,14.70
2008,08,04,00,51,14.70
2008,08,04,00,52,14.70
2008,08,04,00,53,14.70
2008,08,04,00,54,14.60
2008,08,04,00,55,14.60
2008,08,04,00,56,14.60
2008,08,04,00,57,14.60
2008,08,04,00,58,14.60
2008,08,04,00,59,14.60
2008,08,04,01,00,14.60
2008,08,04,01,01,14.60
2008,08,04,01,02,14.60
2008,08,04,01,03,14.60
2008,08,04,01,04,14.50
2008,08,04,01,05,14.50
2008,08,04,01,06,14.50
2008,08,04,01,07,14.40
2008,08,04,01,08,14.40
2008,08,04,01,09,14.40
2008,08,04,01,10,14.40
2008,08,04,01,11,14.40
2008,08,04,01,12,14.30
2008,08,04,01,13,14.30
2008,08,04,01,14,14.30
2008,08,04,01,15,14.30
2008,08,04,01,16,14.30
2008,08,04,01,17,14.30
2008,08,04,01,18,14.20
2008,08,04,01,19,14.20
2008,08,04,01,20,14.20
2008,08,04,01,21,14.20
2008,08,04,01,22,14.20
2008,08,04,01,23,14.20
2008,08,04,01,24,14.20
2008,08,04,01,25,14.20
2008,08,04,01,26,14.10
2008,08,04,01,27,14.10
2008,08,04,01,28,14.10
2008,08,04,01,29,14.10
2008,08,04,01,30,14.10
2008,08,04,01,31,14.10
2008,08,04,01,32,14.10
2008,08,04,01,33,14.10
2008,08,04,01,34,14.10
2008,08,04,01,35,14.00
2008,08,04,01,36,14.00
2008,08,04,01,37,14.00
2008,08,04,01,38,14.00
2008,08,04,01,39,13.90
2008,08,04,01,40,13.90
2008,08,04,01,41,13.90
2008,08,04,01,42,13.90
2008,08,04,01,43,13.90
2008,08,04,01,44,13.90
2008,08,04,01,45,13.90
2008,08,04,01,46,13.90
2008,08,04,01,47,13.80
2008,08,04,01,48,13.80
2008,08,04,01,49,13.80
2008,08,04,01,50,13.80
2008,08,04,01,51,13.80
2008,08,04,01,52,13.80
2008,08,04,01,53,13.80
2008,08,04,01,54,13.80
2008,08,04,01,55,13.80
2008,08,04,01,56,13.80
2008,08,04,01,57,13.80
2008,08,04,01,58,13.80
2008,08,04,01,59,13.80
2008,08,04,02,00,13.80
2008,08,04,02,01,13.70
2008,08,04,02,02,13.70
2008,08,04,02,03,13.70
2008,08,04,02,04,13.70
2008,08,04,02,05,13.70
2008,08,04,02,06,13.70
2008,08,04,02,07,13.60
2008,08,04,02,08,13.60
2008,08,04,02,09,13.60
2008,08,04,02,10,13.60
2008,08,04,02,11,13.50
2008,08,04,02,12,13.50
2008,08,04,02,13,13.50
2008,08,04,02,14,13.40
2008,08,04,02,15,13.40
2008,08,04,02,16,13.40
2008,08,04,02,17,13.40
2008,08,04,02,18,13.30
2008,08,04,02,19,13.30
2008,08,04,02,20,13.30
2008,08,04,02,21,13.20
2008,08,04,02,22,13.20
2008,08,04,02,23,13.20
2008,08,04,02,24,13.20
2008,08,04,02,25,13.20
2008,08,04,02,26,13.20
2008,08,04,02,27,13.20
2008,08,04,02,28,13.20
2008,08,04,02,29,13.20
2008,08,04,02,30,13.20
2008,08,04,02,31,13.20
2008,08,04,02,32,13.20
2008,08,04,02,33,13.20
2008,08,04,02,34,13.20
2008,08,04,02,35,13.10
2008,08,04,02,36,13.10
2008,08,04,02,37,13.10
2008,08,04,02,38,13.10
2008,08,04,02,39,13.10
2008,08,04,02,40,13.10
2008,08,04,02,41,13.10
2008,08,04,02,42,13.00
2008,08,04,02,43,13.00
2008,08,04,02,44,13.00
2008,08,04,02,45,13.00
2008,08,04,02,46,13.00
2008,08,04,02,47,12.90
2008,08,04,02,48,12.90
2008,08,04,02,49,12.90
2008,08,04,02,50,12.90
2008,08,04,02,51,12.90
2008,08,04,02,52,12.90
2008,08,04,02,53,12.90
2008,08,04,02,54,12.90
2008,08,04,02,55,12.90
2008,08,04,02,56,12.90
2008,08,04,02,57,12.90
2008,08,04,02,58,12.90
2008,08,04,02,59,12.90
2008,08,04,03,00,12.90
2008,08,04,03,01,12.90
2008,08,04,03,02,12.90
2008,08,04,03,03,12.80
2008,08,04,03,04,12.80
2008,08,04,03,05,12.80
2008,08,04,03,06,12.80
2008,08,04,03,07,12.80
2008,08,04,03,08,12.80
2008,08,04,03,09,12.80
2008,08,04,03,10,12.80
2008,08,04,03,11,12.80
2008,08,04,03,12,12.70
2008,08,04,03,13,12.70
2008,08,04,03,14,12.70
2008,08,04,03,15,12.70
2008,08,04,03,16,12.70
2008,08,04,03,17,12.70
2008,08,04,03,18,12.60
2008,08,04,03,19,12.60
2008,08,04,03,20,12.60
2008,08,04,03,21,12.60
2008,08,04,03,22,12.60
2008,08,04,03,23,12.60
2008,08,04,03,24,12.60
2008,08,04,03,25,12.60
2008,08,04,03,26,12.60
2008,08,04,03,27,12.60
2008,08,04,03,28,12.60
2008,08,04,03,29,12.60
2008,08,04,03,30,12.60
2008,08,04,03,31,12.50
2008,08,04,03,32,12.50
2008,08,04,03,33,12.50
2008,08,04,03,34,12.50
2008,08,04,03,35,12.50
2008,08,04,03,36,12.40
2008,08,04,03,37,12.40
2008,08,04,03,38,12.40
2008,08,04,03,39,12.40
2008,08,04,03,40,12.40
2008,08,04,03,41,12.40
2008,08,04,03,42,12.40
2008,08,04,03,43,12.40
2008,08,04,03,44,12.40
2008,08,04,03,45,12.40
2008,08,04,03,46,12.40
2008,08,04,03,47,12.40
2008,08,04,03,48,12.30
2008,08,04,03,49,12.30
2008,08,04,03,50,12.30
2008,08,04,03,51,12.30
2008,08,04,03,52,12.30
2008,08,04,03,53,12.30
2008,08,04,03,54,12.30
2008,08,04,03,55,12.30
2008,08,04,03,56,12.30
2008,08,04,03,57,12.30
2008,08,04,03,58,12.30
2008,08,04,03,59,12.30
2008,08,04,04,00,12.30
2008,08,04,04,01,12.30
2008,08,04,04,02,12.30
2008,08,04,04,03,12.30
2008,08,04,04,04,12.30
2008,08,04,04,05,12.30
2008,08,04,04,06,12.30
2008,08,04,04,07,12.30
2008,08,04,04,08,12.20
2008,08,04,04,09,12.20
2008,08,04,04,10,12.20
2008,08,04,04,11,12.10
2008,08,04,04,12,12.10
2008,08,04,04,13,12.10
2008,08,04,04,14,12.10
2008,08,04,04,15,12.10
2008,08,04,04,16,12.10
2008,08,04,04,17,12.00
2008,08,04,04,18,12.00
2008,08,04,04,19,12.00
2008,08,04,04,20,12.00
2008,08,04,04,21,12.00
2008,08,04,04,22,12.00
2008,08,04,04,23,11.90
2008,08,04,04,24,11.90
2008,08,04,04,25,11.90
2008,08,04,04,26,11.90
2008,08,04,04,27,11.90
2008,08,04,04,28,11.90
2008,08,04,04,29,11.90
2008,08,04,04,30,11.90
2008,08,04,04,31,11.90
2008,08,04,04,32,11.90
2008,08,04,04,33,11.80
2008,08,04,04,34,11.80
2008,08,04,04,35,11.80
2008,08,04,04,36,11.80
2008,08,04,04,37,11.80
2008,08,04,04,38,11.80
2008,08,04,04,39,11.80
2008,08,04,04,40,11.80
2008,08,04,04,41,11.80
2008,08,04,04,42,11.70
2008,08,04,04,43,11.70
2008,08,04,04,44,11.70
2008,08,04,04,45,11.70
2008,08,04,04,46,11.70
2008,08,04,04,47,11.70
2008,08,04,04,48,11.70
2008,08,04,04,49,11.70
2008,08,04,04,50,11.70
2008,08,04,04,51,11.70
2008,08,04,04,52,11.70
2008,08,04,04,53,11.70
2008,08,04,04,54,11.60
2008,08,04,04,55,11.60
2008,08,04,04,56,11.60
2008,08,04,04,57,11.60
2008,08,04,04,58,11.60
2008,08,04,04,59,11.60
2008,08,04,05,00,11.60
2008,08,04,05,01,11.60
2008,08,04,05,02,11.60
2008,08,04,05,03,11.60
2008,08,04,05,04,11.60
2008,08,04,05,05,11.60
2008,08,04,05,06,11.60
2008,08,04,05,07,11.50
2008,08,04,05,08,11.50
2008,08,04,05,09,11.50
2008,08,04,05,10,11.50
2008,08,04,05,11,11.50
2008,08,04,05,12,11.50
2008,08,04,05,13,11.50
2008,08,04,05,14,11.50
2008,08,04,05,15,11.40
2008,08,04,05,16,11.40
2008,08,04,05,17,11.40
2008,08,04,05,18,11.40
2008,08,04,05,19,11.40
2008,08,04,05,20,11.30
2008,08,04,05,21,11.30
2008,08,04,05,22,11.30
2008,08,04,05,23,11.30
2008,08,04,05,24,11.30
2008,08,04,05,25,11.30
2008,08,04,05,26,11.30
2008,08,04,05,27,11.30
2008,08,04,05,28,11.30
2008,08,04,05,29,11.30
2008,08,04,05,30,11.30
2008,08,04,05,31,11.30
2008,08,04,05,32,11.30
2008,08,04,05,33,11.30
2008,08,04,05,34,11.30
2008,08,04,05,35,11.30
2008,08,04,05,36,11.30
2008,08,04,05,37,11.30
2008,08,04,05,38,11.30
2008,08,04,05,39,11.20
2008,08,04,05,40,11.20
2008,08,04,05,41,11.20
2008,08,04,05,42,11.20
2008,08,04,05,43,11.20
2008,08,04,05,44,11.20
2008,08,04,05,45,11.20
2008,08,04,05,46,11.20
2008,08,04,05,47,11.20
2008,08,04,05,48,11.20
2008,08,04,05,49,11.20
2008,08,04,05,50,11.20
2008,08,04,05,51,11.20
2008,08,04,05,52,11.20
2008,08,04,05,53,11.20
2008,08,04,05,54,11.20
2008,08,04,05,55,11.20
2008,08,04,05,56,11.20
2008,08,04,05,57,11.20
2008,08,04,05,58,11.20
2008,08,04,05,59,11.20
2008,08,04,06,00,11.20
2008,08,04,06,01,11.20
2008,08,04,06,02,11.20
2008,08,04,06,03,11.20
2008,08,04,06,04,11.20
2008,08,04,06,05,11.20
2008,08,04,06,06,11.20
2008,08,04,06,07,11.20
2008,08,04,06,08,11.10
2008,08,04,06,09,11.10
2008,08,04,06,10,11.10
2008,08,04,06,11,11.10
2008,08,04,06,12,11.10
2008,08,04,06,13,11.10
2008,08,04,06,14,11.10
2008,08,04,06,15,11.10
2008,08,04,06,16,11.10
2008,08,04,06,17,11.10
2008,08,04,06,18,11.10
2008,08,04,06,19,11.00
2008,08,04,06,20,11.00
2008,08,04,06,21,11.00
2008,08,04,06,22,11.00
2008,08,04,06,23,11.00
2008,08,04,06,24,11.00
2008,08,04,06,25,11.00
2008,08,04,06,26,11.00
2008,08,04,06,27,10.90
2008,08,04,06,28,11.00
2008,08,04,06,29,11.00
2008,08,04,06,30,11.00
2008,08,04,06,31,10.90
2008,08,04,06,32,10.90
2008,08,04,06,33,10.90
2008,08,04,06,34,10.90
2008,08,04,06,35,10.90
2008,08,04,06,36,10.90
2008,08,04,06,37,10.90
2008,08,04,06,38,10.90
2008,08,04,06,39,10.90
2008,08,04,06,40,10.90
2008,08,04,06,41,11.00
2008,08,04,06,42,11.00
2008,08,04,06,43,11.00
2008,08,04,06,44,10.90
2008,08,04,06,45,11.00
2008,08,04,06,46,11.00
2008,08,04,06,47,11.00
2008,08,04,06,48,11.00
2008,08,04,06,49,11.00
2008,08,04,06,50,11.00
2008,08,04,06,51,11.00
2008,08,04,06,52,11.10
2008,08,04,06,53,11.10
2008,08,04,06,54,11.10
2008,08,04,06,55,11.10
2008,08,04,06,56,11.10
2008,08,04,06,57,11.10
2008,08,04,06,58,11.10
2008,08,04,06,59,11.20
2008,08,04,07,00,11.20
2008,08,04,07,01,11.20
2008,08,04,07,02,11.20
2008,08,04,07,03,11.20
2008,08,04,07,04,11.30
2008,08,04,07,05,11.30
2008,08,04,07,06,11.30
2008,08,04,07,07,11.30
2008,08,04,07,08,11.30
2008,08,04,07,09,11.30
2008,08,04,07,10,11.40
2008,08,04,07,11,11.40
2008,08,04,07,12,11.40
2008,08,04,07,13,11.40
2008,08,04,07,14,11.50
2008,08,04,07,15,11.50
2008,08,04,07,16,11.50
2008,08,04,07,17,11.60
2008,08,04,07,18,11.60
2008,08,04,07,19,11.60
2008,08,04,07,20,11.70
2008,08,04,07,21,11.70
2008,08,04,07,22,11.70
2008,08,04,07,23,11.80
2008,08,04,07,24,11.80
2008,08,04,07,25,11.80
2008,08,04,07,26,11.80
2008,08,04,07,27,11.80
2008,08,04,07,28,11.80
2008,08,04,07,29,11.90
2008,08,04,07,30,11.90
2008,08,04,07,31,11.90
2008,08,04,07,32,11.90
2008,08,04,07,33,12.00
2008,08,04,07,34,12.00
2008,08,04,07,35,12.10
2008,08,04,07,36,12.10
2008,08,04,07,37,12.10
2008,08,04,07,38,12.10
2008,08,04,07,39,12.20
2008,08,04,07,40,12.20
2008,08,04,07,41,12.20
2008,08,04,07,42,12.20
2008,08,04,07,43,12.30
2008,08,04,07,44,12.30
2008,08,04,07,45,12.30
2008,08,04,07,46,12.40
2008,08,04,07,47,12.40
2008,08,04,07,48,12.40
2008,08,04,07,49,12.50
2008,08,04,07,50,12.60
2008,08,04,07,51,12.60
2008,08,04,07,52,12.60
2008,08,04,07,53,12.70
2008,08,04,07,54,12.70
2008,08,04,07,55,12.80
2008,08,04,07,56,12.80
2008,08,04,07,57,12.80
2008,08,04,07,58,12.90
2008,08,04,07,59,12.90
2008,08,04,08,00,12.90
2008,08,04,08,01,12.90
2008,08,04,08,02,13.00
2008,08,04,08,03,13.00
2008,08,04,08,04,13.10
2008,08,04,08,05,13.10
2008,08,04,08,06,13.10
2008,08,04,08,07,13.20
2008,08,04,08,08,13.20
2008,08,04,08,09,13.30
2008,08,04,08,10,13.30
2008,08,04,08,11,13.40
2008,08,04,08,12,13.50
2008,08,04,08,13,13.50
2008,08,04,08,14,13.60
2008,08,04,08,15,13.60
2008,08,04,08,16,13.60
2008,08,04,08,17,13.70
2008,08,04,08,18,13.70
2008,08,04,08,19,13.80
2008,08,04,08,20,13.80
2008,08,04,08,21,13.80
2008,08,04,08,22,13.80
2008,08,04,08,23,13.90
2008,08,04,08,24,14.00
2008,08,04,08,25,14.10
2008,08,04,08,26,14.10
2008,08,04,08,27,14.20
2008,08,04,08,28,14.20
2008,08,04,08,29,14.30
2008,08,04,08,30,14.40
2008,08,04,08,31,14.50
2008,08,04,08,32,14.50
2008,08,04,08,33,14.60
2008,08,04,08,34,14.70
2008,08,04,08,35,14.80
2008,08,04,08,36,14.90
2008,08,04,08,37,15.00
2008,08,04,08,38,15.00
2008,08,04,08,39,15.00
2008,08,04,08,40,15.10
2008,08,04,08,41,15.20
2008,08,04,08,42,15.30
2008,08,04,08,43,15.50
2008,08,04,08,44,15.60
2008,08,04,08,45,15.70
2008,08,04,08,46,15.80
2008,08,04,08,47,15.90
2008,08,04,08,48,16.00
2008,08,04,08,49,16.00
2008,08,04,08,50,16.10
2008,08,04,08,51,16.10
2008,08,04,08,52,16.20
2008,08,04,08,53,16.20
2008,08,04,08,54,16.30
2008,08,04,08,55,16.40
2008,08,04,08,56,16.40
2008,08,04,08,57,16.50
2008,08,04,08,58,16.60
2008,08,04,08,59,16.70
2008,08,04,09,00,16.70
2008,08,04,09,01,16.70
2008,08,04,09,02,16.80
2008,08,04,09,03,16.80
2008,08,04,09,04,16.90
2008,08,04,09,05,16.90
2008,08,04,09,06,17.00
2008,08,04,09,07,17.00
2008,08,04,09,08,17.10
2008,08,04,09,09,17.10
2008,08,04,09,10,17.20
2008,08,04,09,11,17.20
2008,08,04,09,12,17.30
2008,08,04,09,13,17.30
2008,08,04,09,14,17.40
2008,08,04,09,15,17.40
2008,08,04,09,16,17.50
2008,08,04,09,17,17.60
2008,08,04,09,18,17.70
2008,08,04,09,19,17.80
2008,08,04,09,20,17.90
2008,08,04,09,21,18.00
2008,08,04,09,22,18.10
2008,08,04,09,23,18.20
2008,08,04,09,24,18.30
2008,08,04,09,25,18.30
2008,08,04,09,26,18.40
2008,08,04,09,27,18.40
2008,08,04,09,28,18.40
2008,08,04,09,29,18.50
2008,08,04,09,30,18.50
2008,08,04,09,31,18.60
2008,08,04,09,32,18.60
2008,08,04,09,33,18.70
2008,08,04,09,34,18.70
2008,08,04,09,35,18.70
2008,08,04,09,36,18.70
2008,08,04,09,37,18.70
2008,08,04,09,38,18.70
2008,08,04,09,39,18.70
2008,08,04,09,40,18.60
2008,08,04,09,41,18.60
2008,08,04,09,42,18.60
2008,08,04,09,43,18.60
2008,08,04,09,44,18.60
2008,08,04,09,45,18.60
2008,08,04,09,46,18.60
2008,08,04,09,47,18.60
2008,08,04,09,48,18.70
2008,08,04,09,49,18.70
2008,08,04,09,50,18.70
2008,08,04,09,51,18.80
2008,08,04,09,52,18.80
2008,08,04,09,53,18.80
2008,08,04,09,54,18.90
2008,08,04,09,55,18.90
2008,08,04,09,56,19.00
2008,08,04,09,57,19.00
2008,08,04,09,58,19.10
2008,08,04,09,59,19.10
2008,08,04,10,00,19.00
2008,08,04,10,01,19.00
2008,08,04,10,02,19.00
2008,08,04,10,03,19.00
2008,08,04,10,04,19.00
2008,08,04,10,05,19.10
2008,08,04,10,06,19.10
2008,08,04,10,07,19.10
2008,08,04,10,08,19.20
2008,08,04,10,09,19.20
2008,08,04,10,10,19.30
2008,08,04,10,11,19.30
2008,08,04,10,12,19.30
2008,08,04,10,13,19.30
2008,08,04,10,14,19.30
2008,08,04,10,15,19.40
2008,08,04,10,16,19.40
2008,08,04,10,17,19.40
2008,08,04,10,18,19.40
2008,08,04,10,19,19.50
2008,08,04,10,20,19.60
2008,08,04,10,21,19.60
2008,08,04,10,22,19.60
2008,08,04,10,23,19.60
2008,08,04,10,24,19.60
2008,08,04,10,25,19.70
2008,08,04,10,26,19.70
2008,08,04,10,27,19.80
2008,08,04,10,28,19.80
2008,08,04,10,29,19.80
2008,08,04,10,30,19.90
2008,08,04,10,31,20.00
2008,08,04,10,32,20.10
2008,08,04,10,33,20.20
2008,08,04,10,34,20.30
2008,08,04,10,35,20.40
2008,08,04,10,36,20.50
2008,08,04,10,37,20.70
2008,08,04,10,38,20.80
2008,08,04,10,39,20.90
2008,08,04,10,40,21.00
2008,08,04,10,41,21.20
2008,08,04,10,42,21.20
2008,08,04,10,43,21.30
2008,08,04,10,44,21.50
2008,08,04,10,45,21.60
2008,08,04,10,46,21.70
2008,08,04,10,47,21.80
2008,08,04,10,48,21.90
2008,08,04,10,49,22.00
2008,08,04,10,50,22.00
2008,08,04,10,51,22.10
2008,08,04,10,52,22.10
2008,08,04,10,53,22.20
2008,08,04,10,54,22.20
2008,08,04,10,55,22.20
2008,08,04,10,56,22.20
2008,08,04,10,57,22.20
2008,08,04,10,58,22.30
2008,08,04,10,59,22.30
2008,08,04,11,00,22.40
2008,08,04,11,01,22.50
2008,08,04,11,02,22.60
2008,08,04,11,03,22.60
2008,08,04,11,04,22.70
2008,08,04,11,05,22.70
2008,08,04,11,06,22.70
2008,08,04,11,07,22.70
2008,08,04,11,08,22.60
2008,08,04,11,09,22.60
2008,08,04,11,10,22.70
2008,08,04,11,11,22.70
2008,08,04,11,12,22.80
2008,08,04,11,13,22.80
2008,08,04,11,14,22.90
2008,08,04,11,15,22.90
2008,08,04,11,16,23.00
2008,08,04,11,17,23.10
2008,08,04,11,18,23.00
2008,08,04,11,19,23.00
2008,08,04,11,20,23.10
2008,08,04,11,21,23.10
2008,08,04,11,22,23.20
2008,08,04,11,23,23.30
2008,08,04,11,24,23.40
2008,08,04,11,25,23.50
2008,08,04,11,26,23.50
2008,08,04,11,27,23.50
2008,08,04,11,28,23.40
2008,08,04,11,29,23.40
2008,08,04,11,30,23.40
2008,08,04,11,31,23.30
2008,08,04,11,32,23.30
2008,08,04,11,33,23.30
2008,08,04,11,34,23.40
2008,08,04,11,35,23.40
2008,08,04,11,36,23.40
2008,08,04,11,37,23.50
2008,08,04,11,38,23.60
2008,08,04,11,39,23.60
2008,08,04,11,40,23.60
2008,08,04,11,41,23.60
2008,08,04,11,42,23.70
2008,08,04,11,43,23.70
2008,08,04,11,44,23.80
2008,08,04,11,45,23.90
2008,08,04,11,46,23.90
2008,08,04,11,47,24.00
2008,08,04,11,48,24.10
2008,08,04,11,49,24.20
2008,08,04,11,50,24.30
2008,08,04,11,51,24.30
2008,08,04,11,52,24.40
2008,08,04,11,53,24.40
2008,08,04,11,54,24.30
2008,08,04,11,55,24.30
2008,08,04,11,56,24.20
2008,08,04,11,57,24.20
2008,08,04,11,58,24.20
2008,08,04,11,59,24.30
2008,08,04,12,00,24.30
2008,08,04,12,01,24.30
2008,08,04,12,02,24.30
2008,08,04,12,03,24.40
2008,08,04,12,04,24.40
2008,08,04,12,05,24.30
2008,08,04,12,06,24.30
2008,08,04,12,07,24.30
2008,08,04,12,08,24.40
2008,08,04,12,09,24.40
2008,08,04,12,10,24.40
2008,08,04,12,11,24.50
2008,08,04,12,12,24.50
2008,08,04,12,13,24.60
2008,08,04,12,14,24.60
2008,08,04,12,15,24.70
2008,08,04,12,16,24.70
2008,08,04,12,17,24.80
2008,08,04,12,18,24.80
2008,08,04,12,19,24.90
2008,08,04,12,20,24.90
2008,08,04,12,21,25.00
2008,08,04,12,22,25.00
2008,08,04,12,23,25.10
2008,08,04,12,24,25.10
2008,08,04,12,25,25.20
2008,08,04,12,26,25.20
2008,08,04,12,27,25.30
2008,08,04,12,28,25.30
2008,08,04,12,29,25.30
2008,08,04,12,30,25.30
2008,08,04,12,31,25.40
2008,08,04,12,32,25.40
2008,08,04,12,33,25.40
2008,08,04,12,34,25.50
2008,08,04,12,35,25.60
2008,08,04,12,36,25.60
2008,08,04,12,37,25.70
2008,08,04,12,38,25.80
2008,08,04,12,39,25.80
2008,08,04,12,40,25.90
2008,08,04,12,41,25.90
2008,08,04,12,42,25.90
2008,08,04,12,43,25.80
2008,08,04,12,44,25.60
2008,08,04,12,45,25.60
2008,08,04,12,46,25.60
2008,08,04,12,47,25.50
2008,08,04,12,48,25.50
2008,08,04,12,49,25.60
2008,08,04,12,50,25.60
2008,08,04,12,51,25.70
2008,08,04,12,52,25.80
2008,08,04,12,53,25.80
2008,08,04,12,54,25.90
2008,08,04,12,55,25.90
2008,08,04,12,56,25.90
2008,08,04,12,57,25.90
2008,08,04,12,58,25.90
2008,08,04,12,59,25.90
2008,08,04,13,00,25.90
2008,08,04,13,01,25.80
2008,08,04,13,02,25.80
2008,08,04,13,03,25.90
2008,08,04,13,04,25.90
2008,08,04,13,05,25.90
2008,08,04,13,06,26.00
2008,08,04,13,07,26.10
2008,08,04,13,08,26.20
2008,08,04,13,09,26.30
2008,08,04,13,10,26.30
2008,08,04,13,11,26.30
2008,08,04,13,12,26.30
2008,08,04,13,13,26.40
2008,08,04,13,14,26.40
2008,08,04,13,15,26.40
2008,08,04,13,16,26.50
2008,08,04,13,17,26.50
2008,08,04,13,18,26.40
2008,08,04,13,19,26.40
2008,08,04,13,20,26.40
2008,08,04,13,21,26.40
2008,08,04,13,22,26.40
2008,08,04,13,23,26.30
2008,08,04,13,24,26.30
2008,08,04,13,25,26.30
2008,08,04,13,26,26.30
2008,08,04,13,27,26.40
2008,08,04,13,28,26.40
2008,08,04,13,29,26.40
2008,08,04,13,30,26.40
2008,08,04,13,31,26.40
2008,08,04,13,32,26.50
2008,08,04,13,33,26.50
2008,08,04,13,34,26.40
2008,08,04,13,35,26.40
2008,08,04,13,36,26.50
2008,08,04,13,37,26.50
2008,08,04,13,38,26.60
2008,08,04,13,39,26.70
2008,08,04,13,40,26.70
2008,08,04,13,41,26.70
2008,08,04,13,42,26.70
2008,08,04,13,43,26.80
2008,08,04,13,44,26.80
2008,08,04,13,45,26.80
2008,08,04,13,46,26.80
2008,08,04,13,47,26.80
2008,08,04,13,48,26.90
2008,08,04,13,49,26.90
2008,08,04,13,50,26.90
2008,08,04,13,51,26.90
2008,08,04,13,52,26.90
2008,08,04,13,53,26.90
2008,08,04,13,54,26.90
2008,08,04,13,55,26.90
2008,08,04,13,56,26.90
2008,08,04,13,57,26.90
2008,08,04,13,58,26.90
2008,08,04,13,59,27.00
2008,08,04,14,00,27.10
2008,08,04,14,01,27.20
2008,08,04,14,02,27.30
2008,08,04,14,03,27.30
2008,08,04,14,04,27.30
2008,08,04,14,05,27.40
2008,08,04,14,06,27.40
2008,08,04,14,07,27.50
2008,08,04,14,08,27.60
2008,08,04,14,09,27.60
2008,08,04,14,10,27.70
2008,08,04,14,11,27.70
2008,08,04,14,12,27.70
2008,08,04,14,13,27.80
2008,08,04,14,14,27.80
2008,08,04,14,15,27.80
2008,08,04,14,16,27.80
2008,08,04,14,17,27.80
2008,08,04,14,18,27.80
2008,08,04,14,19,27.80
2008,08,04,14,20,27.70
2008,08,04,14,21,27.70
2008,08,04,14,22,27.70
2008,08,04,14,23,27.80
2008,08,04,14,24,27.80
2008,08,04,14,25,27.80
2008,08,04,14,26,27.70
2008,08,04,14,27,27.70
2008,08,04,14,28,27.70
2008,08,04,14,29,27.80
2008,08,04,14,30,27.80
2008,08,04,14,31,27.70
2008,08,04,14,32,27.70
2008,08,04,14,33,27.70
2008,08,04,14,34,27.70
2008,08,04,14,35,27.70
2008,08,04,14,36,27.70
2008,08,04,14,37,27.70
2008,08,04,14,38,27.80
2008,08,04,14,39,27.90
2008,08,04,14,40,27.90
2008,08,04,14,41,28.00
2008,08,04,14,42,28.00
2008,08,04,14,43,28.10
2008,08,04,14,44,28.00
2008,08,04,14,45,28.00
2008,08,04,14,46,27.90
2008,08,04,14,47,27.90
2008,08,04,14,48,27.90
2008,08,04,14,49,27.90
2008,08,04,14,50,28.00
2008,08,04,14,51,28.10
2008,08,04,14,52,28.10
2008,08,04,14,53,28.20
2008,08,04,14,54,28.10
2008,08,04,14,55,28.00
2008,08,04,14,56,27.90
2008,08,04,14,57,27.90
2008,08,04,14,58,28.00
2008,08,04,14,59,28.00
2008,08,04,15,00,28.10
2008,08,04,15,01,28.20
2008,08,04,15,02,28.30
2008,08,04,15,03,28.30
2008,08,04,15,04,28.40
2008,08,04,15,05,28.50
2008,08,04,15,06,28.50
2008,08,04,15,07,28.60
2008,08,04,15,08,28.70
2008,08,04,15,09,28.70
2008,08,04,15,10,28.80
2008,08,04,15,11,28.90
2008,08,04,15,12,28.90
2008,08,04,15,13,29.00
2008,08,04,15,14,29.10
2008,08,04,15,15,29.10
2008,08,04,15,16,29.10
2008,08,04,15,17,29.20
2008,08,04,15,18,29.30
2008,08,04,15,19,29.30
2008,08,04,15,20,29.40
2008,08,04,15,21,29.40
2008,08,04,15,22,29.50
2008,08,04,15,23,29.50
2008,08,04,15,24,29.50
2008,08,04,15,25,29.50
2008,08,04,15,26,29.40
2008,08,04,15,27,29.40
2008,08,04,15,28,29.50
2008,08,04,15,29,29.50
2008,08,04,15,30,29.60
2008,08,04,15,31,29.60
2008,08,04,15,32,29.60
2008,08,04,15,33,29.50
2008,08,04,15,34,29.50
2008,08,04,15,35,29.50
2008,08,04,15,36,29.50
2008,08,04,15,37,29.40
2008,08,04,15,38,29.40
2008,08,04,15,39,29.40
2008,08,04,15,40,29.40
2008,08,04,15,41,29.40
2008,08,04,15,42,29.50
2008,08,04,15,43,29.50
2008,08,04,15,44,29.60
2008,08,04,15,45,29.60
2008,08,04,15,46,29.60
2008,08,04,15,47,29.70
2008,08,04,15,48,29.70
2008,08,04,15,49,29.70
2008,08,04,15,50,29.60
2008,08,04,15,51,29.60
2008,08,04,15,52,29.50
2008,08,04,15,53,29.50
2008,08,04,15,54,29.50
2008,08,04,15,55,29.40
2008,08,04,15,56,29.40
2008,08,04,15,57,29.40
2008,08,04,15,58,29.40
2008,08,04,15,59,29.50
2008,08,04,16,00,29.60
2008,08,04,16,01,29.70
2008,08,04,16,02,29.70
2008,08,04,16,03,29.80
2008,08,04,16,04,29.80
2008,08,04,16,05,29.90
2008,08,04,16,06,29.90
2008,08,04,16,07,29.90
2008,08,04,16,08,29.90
2008,08,04,16,09,29.80
2008,08,04,16,10,29.60
2008,08,04,16,11,29.50
2008,08,04,16,12,29.40
2008,08,04,16,13,29.40
2008,08,04,16,14,29.40
2008,08,04,16,15,29.40
2008,08,04,16,16,29.50
2008,08,04,16,17,29.60
2008,08,04,16,18,29.50
2008,08,04,16,19,29.60
2008,08,04,16,20,29.60
2008,08,04,16,21,29.70
2008,08,04,16,22,29.80
2008,08,04,16,23,29.90
2008,08,04,16,24,30.00
2008,08,04,16,25,30.00
2008,08,04,16,26,30.10
2008,08,04,16,27,30.10
2008,08,04,16,28,30.10
2008,08,04,16,29,30.10
2008,08,04,16,30,30.20
2008,08,04,16,31,30.20
2008,08,04,16,32,30.20
2008,08,04,16,33,30.20
2008,08,04,16,34,30.20
2008,08,04,16,35,30.20
2008,08,04,16,36,30.10
2008,08,04,16,37,30.10
2008,08,04,16,38,30.00
2008,08,04,16,39,29.90
2008,08,04,16,40,29.80
2008,08,04,16,41,29.80
2008,08,04,16,42,29.80
2008,08,04,16,43,29.70
2008,08,04,16,44,29.60
2008,08,04,16,45,29.60
2008,08,04,16,46,29.60
2008,08,04,16,47,29.60
2008,08,04,16,48,29.60
2008,08,04,16,49,29.60
2008,08,04,16,50,29.70
2008,08,04,16,51,29.70
2008,08,04,16,52,29.80
2008,08,04,16,53,29.80
2008,08,04,16,54,29.90
2008,08,04,16,55,30.00
2008,08,04,16,56,30.10
2008,08,04,16,57,30.10
2008,08,04,16,58,30.20
2008,08,04,16,59,30.20
2008,08,04,17,00,30.20
2008,08,04,17,01,30.20
2008,08,04,17,02,30.10
2008,08,04,17,03,30.10
2008,08,04,17,04,30.10
2008,08,04,17,05,30.10
2008,08,04,17,06,30.00
2008,08,04,17,07,30.10
2008,08,04,17,08,30.10
2008,08,04,17,09,30.10
2008,08,04,17,10,30.20
2008,08,04,17,11,30.20
2008,08,04,17,12,30.20
2008,08,04,17,13,30.10
2008,08,04,17,14,30.00
2008,08,04,17,15,29.90
2008,08,04,17,16,29.80
2008,08,04,17,17,29.80
2008,08,04,17,18,29.70
2008,08,04,17,19,29.70